TimeCST,TemperatureF,Dew PointF,Humidity,Sea Level PressureIn,VisibilityMPH,Wind Direction,Wind SpeedMPH,Gust SpeedMPH,PrecipitationIn,Events,Conditions,WindDirDegrees,DateUTC
12:53 AM,41.0,21.9,47,30.32,10.0,NW,6.9,-,N/A,,Clear,310,2013-03-06 06:53:00
1:53 AM,39.9,21.9,49,30.33,10.0,NW,8.1,-,N/A,,Clear,310,2013-03-06 07:53:00
2:53 AM,37.9,23.0,55,30.33,10.0,NW,9.2,-,N/A,,Clear,320,2013-03-06 08:53:00
3:53 AM,37.0,23.0,57,30.34,10.0,NW,8.1,-,N/A,,Clear,310,2013-03-06 09:53:00
4:53 AM,36.0,23.0,59,30.37,10.0,NW,8.1,-,N/A,,Clear,310,2013-03-06 10:53:00
5:53 AM,34.0,23.0,64,30.38,10.0,NNW,6.9,-,N/A,,Clear,330,2013-03-06 11:53:00
6:53 AM,33.1,21.9,64,30.38,10.0,NNW,5.8,-,N/A,,Clear,330,2013-03-06 12:53:00
7:53 AM,37.0,23.0,57,30.40,10.0,NNW,8.1,-,N/A,,Clear,330,2013-03-06 13:53:00
8:53 AM,39.9,21.0,47,30.42,10.0,NNW,9.2,-,N/A,,Clear,340,2013-03-06 14:53:00
9:53 AM,44.1,18.0,35,30.43,10.0,NW,6.9,-,N/A,,Clear,310,2013-03-06 15:53:00
10:53 AM,48.0,19.0,32,30.42,10.0,North,9.2,-,N/A,,Clear,350,2013-03-06 16:53:00
11:53 AM,51.1,19.0,28,30.40,10.0,Variable,6.9,-,N/A,,Clear,0,2013-03-06 17:53:00
12:53 PM,53.1,18.0,25,30.35,10.0,Variable,3.5,-,N/A,,Clear,0,2013-03-06 18:53:00
1:53 PM,55.0,19.0,24,30.31,10.0,NNE,5.8,-,N/A,,Clear,30,2013-03-06 19:53:00
2:53 PM,57.0,19.9,24,30.30,10.0,NW,3.5,-,N/A,,Clear,310,2013-03-06 20:53:00
4:53 PM,57.9,19.0,22,30.28,10.0,Calm,Calm,-,N/A,,Clear,0,2013-03-06 22:53:00
5:53 PM,53.1,27.0,37,30.27,10.0,East,3.5,-,N/A,,Clear,90,2013-03-06 23:53:00
6:53 PM,48.9,24.1,38,30.27,10.0,ESE,3.5,-,N/A,,Clear,110,2013-03-07 00:53:00
7:53 PM,46.9,24.1,41,30.26,10.0,ESE,3.5,-,N/A,,Clear,120,2013-03-07 01:53:00
8:53 PM,50.0,19.0,29,30.26,10.0,SE,4.6,-,N/A,,Clear,130,2013-03-07 02:53:00
9:53 PM,48.9,19.9,32,30.26,10.0,ESE,5.8,-,N/A,,Clear,120,2013-03-07 03:53:00
10:53 PM,46.0,23.0,40,30.27,10.0,ESE,3.5,-,N/A,,Clear,120,2013-03-07 04:53:00
11:53 PM,45.0,25.0,46,30.26,10.0,East,4.6,-,N/A,,Clear,90,2013-03-07 05:53:00